KLM6626 EHAM-EKCH

Flight info

Callsign KLM6626
Flight time N/A
Altitude 29000
Route ANDIK N873 JUIST DCT DOSUR P729 TUDLO
Aircraft E195/M-SDE3GILORVW/S

Departure

Time 2026-05-04 18:26
Airport Amsterdam Airport Schiphol (EHAM)

Arrival

Time N/A
Airport Copenhagen Kastrup Airport (EKCH)
Time Latitude Longitude Altitude Speed Heading
2026-05-04 18:10 52.30893 4.77236 11 ft 0 kts
2026-05-04 18:16 52.30885 4.77235 11 ft 2 kts
2026-05-04 18:17 52.30856 4.77229 11 ft 2 kts 36°
2026-05-04 18:17 52.30846 4.77211 11 ft 2 kts 70°
2026-05-04 18:17 52.30844 4.77184 11 ft 0 kts 94°
2026-05-04 18:19 52.30844 4.77195 11 ft 3 kts 94°
2026-05-04 18:19 52.30840 4.77278 11 ft 10 kts 93°
2026-05-04 18:19 52.30834 4.77433 9 ft 14 kts 108°
2026-05-04 18:20 52.30742 4.77457 8 ft 14 kts 185°
2026-05-04 18:20 52.30640 4.77414 7 ft 16 kts 230°
2026-05-04 18:20 52.30573 4.77252 6 ft 18 kts 239°
2026-05-04 18:20 52.30505 4.77061 2 ft 21 kts 240°
2026-05-04 18:21 52.30416 4.76839 0 ft 24 kts 239°
2026-05-04 18:21 52.30323 4.76592 -2 ft 26 kts 237°
2026-05-04 18:21 52.30224 4.76336 0 ft 26 kts 237°
2026-05-04 18:21 52.30124 4.76070 0 ft 27 kts 241°
2026-05-04 18:22 52.30020 4.75805 -1 ft 28 kts 234°
2026-05-04 18:22 52.29913 4.75516 0 ft 29 kts 243°
2026-05-04 18:22 52.29839 4.75210 0 ft 28 kts 292°
2026-05-04 18:22 52.29956 4.74980 1 ft 26 kts 313°
2026-05-04 18:23 52.30081 4.74748 -1 ft 28 kts 311°
2026-05-04 18:23 52.30219 4.74497 -7 ft 30 kts 309°
2026-05-04 18:23 52.30362 4.74222 -13 ft 32 kts 297°
2026-05-04 18:23 52.30329 4.74001 -11 ft 16 kts 207°
2026-05-04 18:24 52.30217 4.73902 -13 ft 19 kts 224°
2026-05-04 18:24 52.30213 4.73736 -9 ft 15 kts 356°
2026-05-04 18:24 52.30298 4.73745 -9 ft 0 kts
2026-05-04 18:24 52.30299 4.73745 -9 ft 0 kts
2026-05-04 18:25 52.30349 4.73750 -10 ft 28 kts
2026-05-04 18:25 52.30774 4.73785 -10 ft 93 kts
2026-05-04 18:25 52.31611 4.73864 -4 ft 146 kts
2026-05-04 18:25 52.32702 4.73915 382 ft 157 kts
2026-05-04 18:26 52.33826 4.74108 701 ft 180 kts 15°
2026-05-04 18:26 52.35122 4.74979 862 ft 209 kts 25°
2026-05-04 18:26 52.36485 4.75959 1406 ft 227 kts 25°
2026-05-04 18:26 52.37730 4.76940 2319 ft 228 kts 37°
2026-05-04 18:27 52.38992 4.78832 2690 ft 261 kts 45°
2026-05-04 18:27 52.40292 4.81010 3455 ft 275 kts 45°
2026-05-04 18:27 52.41604 4.83200 4680 ft 271 kts 45°
2026-05-04 18:27 52.42921 4.85276 5827 ft 266 kts 34°
2026-05-04 18:28 52.44643 4.86230 6750 ft 267 kts
2026-05-04 18:28 52.46476 4.86132 7597 ft 271 kts 357°
2026-05-04 18:28 52.48387 4.85979 8383 ft 277 kts 356°
2026-05-04 18:28 52.50310 4.85928 9181 ft 284 kts
2026-05-04 18:29 52.52130 4.87270 9853 ft 297 kts 39°
2026-05-04 18:29 52.53621 4.89839 9919 ft 328 kts 46°
2026-05-04 18:29 52.55456 4.92304 10024 ft 354 kts 30°
2026-05-04 18:29 52.57677 4.94203 10547 ft 366 kts 29°
2026-05-04 18:30 52.61160 5.00227 12394 ft 366 kts 51°
2026-05-04 18:30 52.62714 5.03470 13414 ft 362 kts 51°
2026-05-04 18:30 52.64254 5.06690 14378 ft 359 kts 51°
2026-05-04 18:31 52.65791 5.09909 14922 ft 369 kts 51°
2026-05-04 18:31 52.67429 5.13344 15127 ft 389 kts 51°
2026-05-04 18:31 52.69116 5.16887 15544 ft 401 kts 51°
2026-05-04 18:31 52.70820 5.20468 16271 ft 403 kts 51°
2026-05-04 18:32 52.72543 5.24098 17181 ft 401 kts 51°
2026-05-04 18:32 52.74227 5.27651 18130 ft 397 kts 51°
2026-05-04 18:32 52.75914 5.31216 19043 ft 394 kts 51°
2026-05-04 18:32 52.77573 5.34724 19844 ft 393 kts 51°
2026-05-04 18:33 52.79262 5.38301 20613 ft 394 kts 51°
2026-05-04 18:33 52.80935 5.41849 21337 ft 395 kts 51°
2026-05-04 18:33 52.82610 5.45407 22066 ft 395 kts 51°
2026-05-04 18:33 52.84292 5.48984 22776 ft 396 kts 51°
2026-05-04 18:34 52.85979 5.52577 23480 ft 396 kts 51°
2026-05-04 18:34 52.87639 5.56119 24196 ft 396 kts 51°
2026-05-04 18:34 52.89340 5.59750 24883 ft 397 kts 51°
2026-05-04 18:34 52.91021 5.63346 25567 ft 397 kts 51°
2026-05-04 18:35 52.92707 5.66957 26205 ft 399 kts 52°
2026-05-04 18:35 52.94383 5.70554 26837 ft 399 kts 53°
2026-05-04 18:35 52.96070 5.74179 27474 ft 400 kts 53°
2026-05-04 18:35 52.97774 5.77843 28096 ft 400 kts 53°
2026-05-04 18:36 52.99470 5.81497 28726 ft 400 kts 53°
2026-05-04 18:36 53.01150 5.85122 28951 ft 396 kts 53°
2026-05-04 18:36 53.02266 5.87533 28983 ft 402 kts 53°
2026-05-04 18:36 53.04586 5.92554 29014 ft 423 kts 53°
2026-05-04 18:37 53.06397 5.96479 29016 ft 439 kts 53°
2026-05-04 18:37 53.08298 6.00605 29017 ft 454 kts 53°
2026-05-04 18:37 53.10240 6.04827 29009 ft 469 kts 53°
2026-05-04 18:37 53.12238 6.09179 28996 ft 483 kts 53°
2026-05-04 18:38 53.14307 6.13692 28997 ft 497 kts 53°
2026-05-04 18:38 53.16430 6.18331 28993 ft 510 kts 53°
2026-05-04 18:38 53.18588 6.23057 28985 ft 520 kts 53°
2026-05-04 18:39 53.22968 6.32676 28984 ft 520 kts 53°
2026-05-04 18:39 53.27334 6.42299 28985 ft 521 kts 53°
2026-05-04 18:40 53.31682 6.51922 28987 ft 521 kts 53°
2026-05-04 18:40 53.36296 6.61231 28987 ft 522 kts 42°
2026-05-04 18:41 53.41631 6.69398 28982 ft 521 kts 44°
2026-05-04 18:41 53.46268 6.78810 28988 ft 523 kts 51°
2026-05-04 18:42 53.50906 6.88091 28986 ft 523 kts 50°
2026-05-04 18:42 53.55623 6.97443 28991 ft 524 kts 49°
2026-05-04 18:43 53.60333 7.06810 28991 ft 525 kts 49°
2026-05-04 18:43 53.65004 7.16135 28995 ft 527 kts 49°
2026-05-04 18:44 53.69723 7.25591 28998 ft 533 kts 49°
2026-05-04 18:44 53.74434 7.35068 28998 ft 521 kts 49°
2026-05-04 18:45 53.79103 7.44495 28999 ft 523 kts 49°
2026-05-04 18:45 53.83723 7.53860 29000 ft 523 kts 49°
2026-05-04 18:46 53.88381 7.63336 29000 ft 525 kts 49°
2026-05-04 18:46 53.93052 7.72878 28993 ft 526 kts 50°
2026-05-04 18:47 53.97691 7.82387 28991 ft 527 kts 50°
2026-05-04 18:47 54.02346 7.91969 28992 ft 527 kts 50°
2026-05-04 18:48 54.06990 8.01565 28993 ft 526 kts 49°
2026-05-04 18:48 54.11608 8.11144 28986 ft 525 kts 49°
2026-05-04 18:49 54.16206 8.20718 28986 ft 524 kts 49°
2026-05-04 18:49 54.20777 8.30274 28988 ft 521 kts 49°
2026-05-04 18:50 54.25348 8.39866 28989 ft 520 kts 49°
2026-05-04 18:50 54.29866 8.49386 28989 ft 520 kts 49°
2026-05-04 18:51 54.34384 8.58940 28991 ft 516 kts 49°
2026-05-04 18:51 54.38884 8.68493 28987 ft 517 kts 50°
2026-05-04 18:52 54.43392 8.78101 28989 ft 516 kts 50°
2026-05-04 18:52 54.47879 8.87700 28988 ft 516 kts 50°
2026-05-04 18:53 54.49740 8.91695 28989 ft 515 kts 50°